Regional Weather Roundup
Issued by NWS

Home | Current Version | Previous Version | Graphics & Text | Print | Product List | Glossary On
Versions: 1 2 3 4 5 6 7 8 9 10 11 12 13 14 15 16 17 18 19 20 21 22 23 24 25 26 27
000
ASUS43 KDMX 232007
RWRIA

WEATHER ROUNDUP FOR IOWA
NATIONAL WEATHER SERVICE DES MOINES IA
300 PM CDT THU OCT 23 2014

NOTE: "FAIR" INDICATES FEW OR NO CLOUDS BELOW 12,000 FEET WITH NO
SIGNIFICANT WEATHER AND/OR OBSTRUCTIONS TO VISIBILITY.

* - THESE STATIONS ARE NOT NWS STATIONS...THUS NOT UNDER NWS
QUALITY CONTROL.  THEY ALSO DO NOT REPORT WEATHER SUCH
AS PRECIPITATION OR FOG.

IAZ001>003-012>014-020>022-031>034-043>046-232100-
   NORTHWEST IOWA

CITY           SKY/WX    TMP DP  RH WIND       PRES   REMARKS
CARROLL *      SUNNY     70  45  40 VRB3      30.01F
CHEROKEE *     SUNNY     68  50  52 S6        30.00F
DENISON *      SUNNY     70  43  37 CALM      30.00F
LE MARS *      SUNNY     70  45  40 SW8       30.00F
ORANGE CITY *  SUNNY     70  48  46 SW8       29.99F
SHELDON *      SUNNY     68  48  49 SW9       29.98F
SIOUX CITY     SUNNY     72  48  42 S9        30.00F
SPENCER        SUNNY     70  46  42 W14       29.99F
STORM LAKE *   SUNNY     68  43  40 W3G12     30.02F
$$

IAZ055>058-069>071-079>083-090>094-232100-
   SOUTHWEST IOWA

CITY           SKY/WX    TMP DP  RH WIND       PRES   REMARKS
ATLANTIC *     SUNNY     72  45  37 N3        30.01F
AUDUBON *      SUNNY     72  43  35 CALM      30.02F
CLARINDA *     SUNNY     73  54  49 NW5       30.03F
COUNCIL BLFS * SUNNY     72  50  46 CALM      30.01F
CRESTON *      SUNNY     66  55  68 NW6       30.03F
HARLAN  *      SUNNY     72  43  35 CALM      30.05F
LAMONI         PTSUNNY   63  59  87 W7        30.04F
RED OAK *      SUNNY     70  54  56 CALM      30.02F
SHENANDOAH *   SUNNY     72  54  53 NW6       30.03F
$$

IAZ047>049-059>061-072>074-084-232100-
   CENTRAL IOWA

CITY           SKY/WX    TMP DP  RH WIND       PRES   REMARKS
AMES           MOSUNNY   69  51  52 N6        30.00F
ANKENY *       MOSUNNY   68  55  64 NW8       30.00F
CHARITON *     CLOUDY    61  57  88 SW9       30.03F
DES MOINES     MOSUNNY   70  57  63 SW5       30.01F
GRINNELL*      CLOUDY    59  55  88 S3        30.03F
KNOXVILLE *    PTSUNNY   63  57  82 SW9       30.01F
MARSHALLTOWN   MOSUNNY   64  55  72 W8        30.01F
PELLA *        MOSUNNY   63  57  82 SW7       30.04F
PERRY *          N/A     70  48  46 N5        30.01F
$$

IAZ004>006-015-016-023>025-035-036-232100-
   NORTH CENTRAL IOWA

CITY           SKY/WX    TMP DP  RH WIND       PRES   REMARKS
ALGONA *       SUNNY     66  50  55 VRB7      30.01S
CLARION *      SUNNY     66  52  59 NW6       30.01S
ESTHERVILLE    SUNNY     70  40  33 W12G20    29.98F
FORT DODGE *   SUNNY     68  50  52 NW3       30.02S
MASON CITY     SUNNY     66  52  60 VRB5      30.01F
FOREST CITY *  SUNNY     64  48  55 NW3       30.00F
IOWA FALLS *     N/A     66  52  59 NW6       30.02S
$$

IAZ007>011-017>019-026>030-037>042-050>054-066-232100-
   NORTHEAST IOWA

CITY           SKY/WX    TMP DP  RH WIND       PRES   REMARKS
CEDAR RAPIDS   CLOUDY    55  50  83 S6        30.02F
CHARLES CITY * CLOUDY    55  52  88 CALM      30.02F
CLINTON *      CLOUDY    57  45  62 S13       30.07S
DECORAH *      CLOUDY    50  48  93 SW3       30.02R
DUBUQUE        CLOUDY    50  49  96 S9        30.03F
MONTICELLO *   CLOUDY    52  50  93 S5        30.03F
OELWEIN *      CLOUDY    52  52 100 SW8       30.03F FOG
WATERLOO       CLOUDY    55  52  89 SW6       30.02F
$$

IAZ064-065-067-068-078-232100-
   EAST CENTRAL IOWA

CITY           SKY/WX    TMP DP  RH WIND       PRES   REMARKS
DAVENPORT      CLOUDY    60  46  59 S15       30.04F
IOWA CITY      CLOUDY    58  51  78 CALM      30.04F
MT. PLEASANT * CLOUDY    63  50  63 S9        30.04F
MUSCATINE *    CLOUDY    63  48  59 S9        30.04F
QUAD CITIES    PTSUNNY   61  46  57 S9        30.04F
$$

IAZ062-063-075>077-085>089-095>099-232100-
   SOUTHEAST IOWA

CITY           SKY/WX    TMP DP  RH WIND       PRES   REMARKS
BURLINGTON     CLOUDY    61  49  64 S12       30.05F
FAIRFIELD *    CLOUDY    68  55  64 W8        30.02F
FORT MADISON * PTSUNNY   63  50  63 S9        30.07S
KEOKUK *       MOSUNNY   61  50  67 S14       30.06S
OSKALOOSA *    CLOUDY    61  55  82 W10       30.04S
CENTERVILLE *  CLOUDY    63  59  88 SW8       30.05F
OTTUMWA        CLOUDY    63  55  75 W8        30.03F
WASHINGTON *   CLOUDY    66  55  68 W6        30.02F
$$

ABBREVIATIONS USED IN REMARKS
   TC - TEMPERATURES IN CELSIUS
  WCI - WIND CHILL INDEX
   HX - HEAT INDEX
  VSB - VISIBILITY
$$




USA.gov is the U.S. government's official web portal to all federal, state and local government web resources and services.